DAL1454 KATL-KTPA

Flight info

Callsign DAL1454
Flight time N/A
Altitude 36000
Route BANNG3 LUCKK HONID MAATY5
Aircraft A319/M-SDE3FGHIRWY/LB1

Departure

Time 2026-05-05 21:45
Airport Hartsfield Jackson Atlanta International Airport (KATL)

Arrival

Time N/A
Airport Tampa International Airport (KTPA)
Time Latitude Longitude Altitude Speed Heading
2026-05-05 21:19 33.64037 -84.43537 1021 ft 0 kts 270°
2026-05-05 21:30 33.64037 -84.43533 1021 ft 2 kts 270°
2026-05-05 21:31 33.64037 -84.43515 1020 ft 2 kts 270°
2026-05-05 21:31 33.64037 -84.43497 1020 ft 2 kts 270°
2026-05-05 21:31 33.64037 -84.43479 1020 ft 2 kts 270°
2026-05-05 21:31 33.64037 -84.43468 1020 ft 1 kts 272°
2026-05-05 21:32 33.64040 -84.43459 1021 ft 1 kts 205°
2026-05-05 21:32 33.64045 -84.43458 1021 ft 1 kts 169°
2026-05-05 21:32 33.64051 -84.43459 1021 ft 0 kts 180°
2026-05-05 21:34 33.64050 -84.43459 1021 ft 0 kts 180°
2026-05-05 21:34 33.64035 -84.43459 1021 ft 3 kts 178°
2026-05-05 21:35 33.64002 -84.43458 1021 ft 5 kts 182°
2026-05-05 21:35 33.63952 -84.43459 1021 ft 8 kts 180°
2026-05-05 21:35 33.63886 -84.43459 1021 ft 10 kts 181°
2026-05-05 21:35 33.63806 -84.43460 1021 ft 12 kts 180°
2026-05-05 21:36 33.63712 -84.43457 1021 ft 14 kts 171°
2026-05-05 21:36 33.63662 -84.43366 1021 ft 15 kts 86°
2026-05-05 21:36 33.63664 -84.43230 1021 ft 16 kts 90°
2026-05-05 21:36 33.63663 -84.43082 1021 ft 18 kts 90°
2026-05-05 21:37 33.63662 -84.42914 1021 ft 21 kts 90°
2026-05-05 21:37 33.63660 -84.42738 1021 ft 19 kts 97°
2026-05-05 21:37 33.63656 -84.42592 1021 ft 16 kts 89°
2026-05-05 21:37 33.63655 -84.42457 1021 ft 16 kts 90°
2026-05-05 21:38 33.63655 -84.42326 1021 ft 14 kts 90°
2026-05-05 21:38 33.63654 -84.42202 1020 ft 15 kts 91°
2026-05-05 21:38 33.63654 -84.42066 1018 ft 17 kts 90°
2026-05-05 21:38 33.63654 -84.41924 1018 ft 17 kts 90°
2026-05-05 21:39 33.63654 -84.41776 1018 ft 17 kts 90°
2026-05-05 21:39 33.63654 -84.41737 1018 ft 0 kts 90°
2026-05-05 21:39 33.63654 -84.41729 1018 ft 2 kts 90°
2026-05-05 21:39 33.63655 -84.41698 1018 ft 4 kts 89°
2026-05-05 21:40 33.63655 -84.41650 1019 ft 6 kts 91°
2026-05-05 21:40 33.63655 -84.41581 1019 ft 10 kts 90°
2026-05-05 21:40 33.63655 -84.41471 1016 ft 15 kts 90°
2026-05-05 21:40 33.63656 -84.41318 1012 ft 20 kts 90°
2026-05-05 21:41 33.63656 -84.41124 1008 ft 22 kts 91°
2026-05-05 21:41 33.63607 -84.41040 1004 ft 11 kts 169°
2026-05-05 21:41 33.63581 -84.40959 1004 ft 12 kts 89°
2026-05-05 21:41 33.63560 -84.40913 1003 ft 0 kts 154°
2026-05-05 21:42 33.63558 -84.40912 1003 ft 1 kts 154°
2026-05-05 21:43 33.63547 -84.40906 1003 ft 2 kts 169°
2026-05-05 21:43 33.63525 -84.40909 1003 ft 3 kts 192°
2026-05-05 21:43 33.63495 -84.40917 1003 ft 5 kts 199°
2026-05-05 21:43 33.63472 -84.40949 1004 ft 5 kts 258°
2026-05-05 21:44 33.63472 -84.40997 1004 ft 6 kts 270°
2026-05-05 21:44 33.63468 -84.41287 1006 ft 79 kts 268°
2026-05-05 21:44 33.63468 -84.42288 1010 ft 157 kts 268°
2026-05-05 21:44 33.63458 -84.43735 1479 ft 183 kts 264°
2026-05-05 21:45 33.63428 -84.45291 2244 ft 197 kts 266°
2026-05-05 21:45 33.63438 -84.46964 2828 ft 206 kts 267°
2026-05-05 21:45 33.63455 -84.48748 3323 ft 223 kts 267°
2026-05-05 21:45 33.63465 -84.50687 3850 ft 241 kts 267°
2026-05-05 21:46 33.63468 -84.52724 4457 ft 255 kts 267°
2026-05-05 21:46 33.63468 -84.54926 4993 ft 274 kts 268°
2026-05-05 21:46 33.63464 -84.57295 5517 ft 293 kts 268°
2026-05-05 21:46 33.63459 -84.59776 6164 ft 305 kts 268°
2026-05-05 21:47 33.63449 -84.62330 7075 ft 307 kts 266°
2026-05-05 21:47 33.63005 -84.64777 8023 ft 306 kts 245°
2026-05-05 21:47 33.61718 -84.66808 9023 ft 308 kts 223°
2026-05-05 21:47 33.59929 -84.68182 9940 ft 312 kts 212°
2026-05-05 21:48 33.57873 -84.69174 10745 ft 323 kts 197°
2026-05-05 21:48 33.55729 -84.69380 11495 ft 335 kts 180°
2026-05-05 21:48 33.53386 -84.68999 12312 ft 341 kts 175°
2026-05-05 21:48 33.51031 -84.68527 13083 ft 345 kts 175°
2026-05-05 21:49 33.48642 -84.68051 13806 ft 350 kts 175°
2026-05-05 21:49 33.46238 -84.67587 14484 ft 355 kts 176°
2026-05-05 21:49 33.43785 -84.67082 15112 ft 363 kts 173°
2026-05-05 21:49 33.41293 -84.66281 15749 ft 372 kts 166°
2026-05-05 21:50 33.38841 -84.65138 16382 ft 381 kts 161°
2026-05-05 21:50 33.36398 -84.63833 17010 ft 386 kts 160°
2026-05-05 21:50 33.33926 -84.62480 17619 ft 391 kts 159°
2026-05-05 21:50 33.31450 -84.61128 18216 ft 396 kts 159°
2026-05-05 21:51 33.28887 -84.59732 18821 ft 400 kts 160°
2026-05-05 21:51 33.26314 -84.58340 19404 ft 405 kts 160°
2026-05-05 21:51 33.23764 -84.56963 19989 ft 408 kts 160°
2026-05-05 21:51 33.21153 -84.55558 20587 ft 412 kts 160°
2026-05-05 21:52 33.15860 -84.52710 21694 ft 419 kts 160°
2026-05-05 21:52 33.13187 -84.51276 22225 ft 423 kts 160°
2026-05-05 21:52 33.10478 -84.49820 22733 ft 427 kts 160°
2026-05-05 21:53 33.07734 -84.48350 23262 ft 430 kts 160°
2026-05-05 21:53 33.05022 -84.46896 23744 ft 435 kts 160°
2026-05-05 21:53 33.02214 -84.45393 24215 ft 440 kts 160°
2026-05-05 21:53 32.99408 -84.43900 24651 ft 444 kts 162°
2026-05-05 21:54 32.96505 -84.42716 25096 ft 443 kts 171°
2026-05-05 21:54 32.93463 -84.42068 25553 ft 439 kts 180°
2026-05-05 21:54 32.90422 -84.41901 26002 ft 439 kts 185°
2026-05-05 21:54 32.87360 -84.41857 26407 ft 444 kts 186°
2026-05-05 21:55 32.84239 -84.41831 26798 ft 449 kts 186°
2026-05-05 21:55 32.81087 -84.41795 27233 ft 453 kts 186°
2026-05-05 21:55 32.78175 -84.41751 27648 ft 456 kts 186°
2026-05-05 21:55 32.74977 -84.41698 28033 ft 461 kts 186°
2026-05-05 21:56 32.71751 -84.41637 28416 ft 465 kts 186°
2026-05-05 21:56 32.68478 -84.41573 28850 ft 469 kts 186°
2026-05-05 21:56 32.65189 -84.41507 29244 ft 473 kts 186°
2026-05-05 21:56 32.61888 -84.41441 29612 ft 477 kts 186°
2026-05-05 21:57 32.58542 -84.41374 29983 ft 481 kts 186°
2026-05-05 21:57 32.55171 -84.41305 30324 ft 486 kts 186°
2026-05-05 21:57 32.51730 -84.41237 30695 ft 491 kts 187°
2026-05-05 21:57 32.48300 -84.41167 31082 ft 494 kts 187°
2026-05-05 21:58 32.44850 -84.41096 31429 ft 498 kts 187°
2026-05-05 21:58 32.41382 -84.41029 31742 ft 503 kts 187°
2026-05-05 21:58 32.37887 -84.40958 32085 ft 507 kts 187°
2026-05-05 21:58 32.34357 -84.40887 32444 ft 509 kts 187°
2026-05-05 21:59 32.30779 -84.40816 32765 ft 513 kts 188°
2026-05-05 21:59 32.27187 -84.40745 33049 ft 516 kts 188°
2026-05-05 21:59 32.24071 -84.40685 33311 ft 520 kts 188°
2026-05-05 21:59 32.22015 -84.40643 33497 ft 521 kts 188°
2026-05-05 22:00 32.18379 -84.40573 33857 ft 523 kts 188°
2026-05-05 22:00 32.14719 -84.40499 34201 ft 525 kts 188°
2026-05-05 22:00 32.11009 -84.40422 34666 ft 524 kts 188°
2026-05-05 22:00 32.07367 -84.40345 35342 ft 518 kts 188°
2026-05-05 22:01 32.03802 -84.40269 35821 ft 517 kts 188°
2026-05-05 22:01 32.00148 -84.40199 35975 ft 519 kts 188°
2026-05-05 22:01 31.96567 -84.40133 35978 ft 518 kts 188°
2026-05-05 22:02 31.89419 -84.39990 35977 ft 517 kts 188°
2026-05-05 22:02 31.82107 -84.39848 35977 ft 518 kts 188°
2026-05-05 22:03 31.74877 -84.39704 35975 ft 518 kts 188°
2026-05-05 22:03 31.68042 -84.39567 35977 ft 518 kts 189°
2026-05-05 22:04 31.64472 -84.39497 35975 ft 517 kts 188°
2026-05-05 22:04 31.59673 -84.39476 35978 ft 516 kts 189°
2026-05-05 22:05 31.52472 -84.39507 35976 ft 516 kts 190°
2026-05-05 22:05 31.45247 -84.39533 35976 ft 517 kts 189°
2026-05-05 22:06 31.37974 -84.39547 35976 ft 516 kts 190°
2026-05-05 22:06 31.30740 -84.39561 35975 ft 517 kts 189°
2026-05-05 22:07 31.23554 -84.39570 35980 ft 518 kts 189°
2026-05-05 22:07 31.16296 -84.39578 35980 ft 516 kts 189°
2026-05-05 22:08 31.09574 -84.39587 35981 ft 517 kts 189°
2026-05-05 22:08 31.02357 -84.39596 35977 ft 516 kts 189°
2026-05-05 22:09 30.95172 -84.39606 35983 ft 516 kts 189°
2026-05-05 22:09 30.87977 -84.39618 35978 ft 517 kts 189°
2026-05-05 22:10 30.80928 -84.39627 35975 ft 517 kts 189°
2026-05-05 22:10 30.73710 -84.39632 35977 ft 515 kts 189°
2026-05-05 22:11 30.66505 -84.39642 35983 ft 515 kts 189°
2026-05-05 22:11 30.59331 -84.39654 35988 ft 516 kts 189°
2026-05-05 22:12 30.52322 -84.39662 35996 ft 515 kts 189°
2026-05-05 22:12 30.45123 -84.39664 36001 ft 514 kts 189°
2026-05-05 22:13 30.38083 -84.39088 35998 ft 529 kts 176°
2026-05-05 22:13 30.30943 -84.36407 36003 ft 547 kts 159°
2026-05-05 22:14 30.24526 -84.31565 36009 ft 557 kts 143°
2026-05-05 22:14 30.18678 -84.25658 36008 ft 557 kts 141°
2026-05-05 22:15 30.12829 -84.19717 36005 ft 557 kts 142°
2026-05-05 22:15 30.06922 -84.13847 36002 ft 558 kts 142°
2026-05-05 22:16 30.01016 -84.08021 36004 ft 556 kts 142°
2026-05-05 22:16 29.95131 -84.02230 36005 ft 556 kts 142°
2026-05-05 22:17 29.89216 -83.96418 36007 ft 555 kts 142°
2026-05-05 22:17 29.83233 -83.90721 36002 ft 554 kts 147°
2026-05-05 22:18 29.76794 -83.85934 35811 ft 543 kts 155°
2026-05-05 22:18 29.73485 -83.83804 35246 ft 538 kts 155°
2026-05-05 22:18 29.70237 -83.81749 34547 ft 536 kts 156°
2026-05-05 22:18 29.66966 -83.79677 33942 ft 531 kts 155°
2026-05-05 22:19 29.63718 -83.77609 33295 ft 529 kts 155°
2026-05-05 22:19 29.60512 -83.75563 32341 ft 534 kts 154°
2026-05-05 22:19 29.57248 -83.73474 31458 ft 536 kts 154°
2026-05-05 22:19 29.53988 -83.71380 30846 ft 532 kts 154°
2026-05-05 22:20 29.50759 -83.69303 30279 ft 527 kts 154°
2026-05-05 22:20 29.47588 -83.67265 29748 ft 521 kts 154°
2026-05-05 22:20 29.44390 -83.65211 29201 ft 516 kts 154°
2026-05-05 22:20 29.41242 -83.63193 28658 ft 511 kts 154°
2026-05-05 22:21 29.38141 -83.61206 28137 ft 505 kts 153°
2026-05-05 22:21 29.35091 -83.59253 27616 ft 500 kts 153°
2026-05-05 22:21 29.32054 -83.57308 27070 ft 495 kts 153°
2026-05-05 22:21 29.29012 -83.55361 26551 ft 489 kts 154°
2026-05-05 22:22 29.26042 -83.53467 26024 ft 484 kts 154°
2026-05-05 22:22 29.23128 -83.51607 25514 ft 479 kts 154°
2026-05-05 22:22 29.20231 -83.49760 25021 ft 473 kts 153°
2026-05-05 22:22 29.17361 -83.47938 24512 ft 468 kts 153°
2026-05-05 22:23 29.14501 -83.46121 23981 ft 463 kts 153°
2026-05-05 22:23 29.11703 -83.44340 23469 ft 459 kts 154°
2026-05-05 22:23 29.08890 -83.42551 23000 ft 454 kts 154°
2026-05-05 22:23 29.06126 -83.40799 22531 ft 450 kts 153°
2026-05-05 22:24 29.03386 -83.39062 22064 ft 446 kts 153°
2026-05-05 22:24 29.00652 -83.37331 21616 ft 442 kts 153°
2026-05-05 22:24 28.97992 -83.35645 21154 ft 438 kts 153°
2026-05-05 22:24 28.95320 -83.33953 20669 ft 435 kts 154°
2026-05-05 22:25 28.93567 -83.32841 20351 ft 433 kts 154°